TimeAKDT,TemperatureF,Dew PointF,Humidity,Sea Level PressureIn,VisibilityMPH,Wind Direction,Wind SpeedMPH,Gust SpeedMPH,PrecipitationIn,Events,Conditions,WindDirDegrees,DateUTC
12:16 AM,44.6,42.8,93,30.12,10.0,South,3.5,-,N/A,,Overcast,170,2012-10-06 08:16:00
12:36 AM,46.4,44.6,93,30.13,8.0,Calm,Calm,-,N/A,,Overcast,0,2012-10-06 08:36:00
12:56 AM,46.4,44.6,93,30.13,10.0,Calm,Calm,-,N/A,,Overcast,0,2012-10-06 08:56:00
1:36 AM,46.4,44.6,93,30.12,8.0,South,3.5,-,N/A,,Mostly Cloudy,180,2012-10-06 09:36:00
1:56 AM,46.4,44.6,93,30.13,10.0,South,3.5,-,N/A,,Overcast,170,2012-10-06 09:56:00
2:16 AM,46.4,44.6,93,30.14,8.0,Calm,Calm,-,N/A,,Overcast,0,2012-10-06 10:16:00
2:36 AM,46.4,44.6,93,30.14,7.0,West,3.5,-,N/A,,Overcast,280,2012-10-06 10:36:00
2:56 AM,46.4,44.6,93,30.13,7.0,Calm,Calm,-,N/A,,Overcast,0,2012-10-06 10:56:00
3:16 AM,46.4,44.6,93,30.13,9.0,SSW,3.5,-,0.02,,Overcast,210,2012-10-06 11:16:00
3:56 AM,46.4,44.6,93,30.13,10.0,South,3.5,-,0.03,,Mostly Cloudy,180,2012-10-06 11:56:00
4:16 AM,46.4,44.6,93,30.13,8.0,South,3.5,-,N/A,,Mostly Cloudy,170,2012-10-06 12:16:00
4:36 AM,46.4,44.6,93,30.13,10.0,Calm,Calm,-,N/A,,Overcast,0,2012-10-06 12:36:00
4:56 AM,46.4,44.6,93,30.13,10.0,South,4.6,-,N/A,,Overcast,190,2012-10-06 12:56:00
5:16 AM,46.4,44.6,93,30.13,10.0,SSW,3.5,-,N/A,,Overcast,210,2012-10-06 13:16:00
5:36 AM,46.4,44.6,93,30.13,10.0,South,3.5,-,N/A,,Overcast,180,2012-10-06 13:36:00
5:56 AM,46.4,44.6,93,30.13,10.0,SW,3.5,-,N/A,,Overcast,230,2012-10-06 13:56:00
6:16 AM,46.4,44.6,93,30.14,10.0,West,4.6,-,N/A,,Mostly Cloudy,260,2012-10-06 14:16:00
6:36 AM,46.4,42.8,87,30.14,10.0,SW,4.6,-,N/A,,Overcast,230,2012-10-06 14:36:00
6:56 AM,46.4,42.8,87,30.14,10.0,South,4.6,-,N/A,,Overcast,190,2012-10-06 14:56:00
7:16 AM,44.6,42.8,93,30.14,10.0,SSW,5.8,-,N/A,,Overcast,200,2012-10-06 15:16:00
7:36 AM,44.6,41.0,87,30.15,10.0,SSW,6.9,-,N/A,,Scattered Clouds,210,2012-10-06 15:36:00
7:56 AM,44.6,41.0,87,30.15,10.0,SSW,8.1,-,N/A,,Clear,200,2012-10-06 15:56:00
8:16 AM,44.6,39.2,81,30.15,10.0,South,6.9,-,N/A,,Clear,190,2012-10-06 16:16:00
8:36 AM,44.6,39.2,81,30.15,10.0,SSW,3.5,-,N/A,,Clear,210,2012-10-06 16:36:00
8:56 AM,44.6,39.2,81,30.15,10.0,WSW,3.5,-,N/A,,Clear,250,2012-10-06 16:56:00
9:16 AM,44.6,39.2,81,30.17,10.0,South,3.5,-,N/A,,Clear,180,2012-10-06 17:16:00
9:36 AM,44.6,41.0,87,30.18,10.0,South,5.8,-,N/A,,Clear,180,2012-10-06 17:36:00
9:56 AM,44.6,39.2,81,30.19,10.0,SE,3.5,-,N/A,,Clear,140,2012-10-06 17:56:00
10:16 AM,44.6,39.2,81,30.19,10.0,SSW,5.8,-,N/A,,Clear,210,2012-10-06 18:16:00
10:36 AM,46.4,41.0,81,30.21,10.0,Calm,Calm,-,N/A,,Clear,0,2012-10-06 18:36:00
10:56 AM,44.6,42.8,93,30.21,10.0,Calm,Calm,-,N/A,,Scattered Clouds,0,2012-10-06 18:56:00
11:16 AM,46.4,42.8,87,30.22,10.0,Calm,Calm,-,N/A,,Scattered Clouds,0,2012-10-06 19:16:00
11:36 AM,46.4,41.0,81,30.22,10.0,Calm,Calm,-,N/A,,Clear,0,2012-10-06 19:36:00
11:56 AM,48.2,42.8,82,30.22,10.0,South,5.8,-,N/A,,Clear,170,2012-10-06 19:56:00
12:16 PM,48.2,44.6,87,30.22,10.0,South,5.8,-,N/A,,Clear,190,2012-10-06 20:16:00
12:36 PM,48.2,44.6,87,30.23,10.0,South,6.9,-,N/A,,Partly Cloudy,180,2012-10-06 20:36:00
12:56 PM,48.2,42.8,82,30.24,10.0,SSW,6.9,-,N/A,,Scattered Clouds,200,2012-10-06 20:56:00
1:16 PM,50.0,42.8,76,30.25,10.0,SSW,8.1,-,N/A,,Partly Cloudy,200,2012-10-06 21:16:00
1:36 PM,50.0,42.8,76,30.25,10.0,South,6.9,-,N/A,,Clear,170,2012-10-06 21:36:00
1:56 PM,51.8,42.8,71,30.25,10.0,South,8.1,-,N/A,,Clear,190,2012-10-06 21:56:00
2:16 PM,51.8,42.8,71,30.24,10.0,South,6.9,-,N/A,,Partly Cloudy,170,2012-10-06 22:16:00
2:36 PM,51.8,42.8,71,30.25,10.0,SSW,6.9,-,N/A,,Scattered Clouds,210,2012-10-06 22:36:00
2:56 PM,51.8,42.8,71,30.24,10.0,SSW,6.9,-,N/A,,Mostly Cloudy,210,2012-10-06 22:56:00
3:16 PM,51.8,41.0,67,30.25,10.0,WSW,4.6,-,N/A,,Scattered Clouds,240,2012-10-06 23:16:00
3:36 PM,51.8,42.8,71,30.25,10.0,West,8.1,-,N/A,,Partly Cloudy,280,2012-10-06 23:36:00
3:56 PM,51.8,42.8,71,30.25,10.0,West,5.8,-,N/A,,Scattered Clouds,270,2012-10-06 23:56:00
4:16 PM,51.8,42.8,71,30.25,10.0,WNW,6.9,-,N/A,,Scattered Clouds,300,2012-10-07 00:16:00
4:36 PM,51.8,42.8,71,30.25,10.0,WNW,6.9,-,N/A,,Mostly Cloudy,300,2012-10-07 00:36:00
4:56 PM,51.8,39.2,62,30.24,10.0,NW,3.5,-,N/A,,Scattered Clouds,320,2012-10-07 00:56:00
5:16 PM,51.8,39.2,62,30.24,10.0,NW,5.8,-,N/A,,Scattered Clouds,310,2012-10-07 01:16:00
5:36 PM,51.8,39.2,62,30.24,10.0,WNW,4.6,-,N/A,,Scattered Clouds,290,2012-10-07 01:36:00
5:56 PM,51.8,39.2,62,30.24,10.0,NW,5.8,-,N/A,,Partly Cloudy,310,2012-10-07 01:56:00
6:16 PM,51.8,39.2,62,30.24,10.0,NW,4.6,-,N/A,,Clear,310,2012-10-07 02:16:00
6:36 PM,50.0,39.2,66,30.24,10.0,NW,4.6,-,N/A,,Clear,320,2012-10-07 02:36:00
6:56 PM,46.4,39.2,76,30.26,10.0,West,4.6,-,N/A,,Clear,270,2012-10-07 02:56:00
7:16 PM,46.4,39.2,76,30.27,10.0,Calm,Calm,-,N/A,,Clear,0,2012-10-07 03:16:00
7:36 PM,44.6,37.4,76,30.27,10.0,Calm,Calm,-,N/A,,Clear,0,2012-10-07 03:36:00
7:56 PM,44.6,39.2,81,30.26,10.0,Calm,Calm,-,N/A,,Clear,0,2012-10-07 03:56:00
8:16 PM,42.8,37.4,81,30.26,10.0,Calm,Calm,-,N/A,,Clear,0,2012-10-07 04:16:00
8:36 PM,42.8,39.2,87,30.26,10.0,Calm,Calm,-,N/A,,Clear,0,2012-10-07 04:36:00
8:56 PM,42.8,39.2,87,30.26,10.0,Calm,Calm,-,N/A,,Clear,0,2012-10-07 04:56:00
9:16 PM,42.8,39.2,87,30.27,10.0,Calm,Calm,-,N/A,,Scattered Clouds,0,2012-10-07 05:16:00
9:36 PM,42.8,39.2,87,30.28,10.0,Calm,Calm,-,N/A,,Scattered Clouds,0,2012-10-07 05:36:00
9:56 PM,41.0,39.2,93,30.28,10.0,Calm,Calm,-,N/A,,Mostly Cloudy,0,2012-10-07 05:56:00
10:16 PM,41.0,37.4,87,30.28,10.0,Calm,Calm,-,N/A,,Mostly Cloudy,0,2012-10-07 06:16:00
10:36 PM,42.8,39.2,87,30.28,10.0,Calm,Calm,-,N/A,,Scattered Clouds,0,2012-10-07 06:36:00
10:56 PM,41.0,39.2,93,30.29,10.0,Calm,Calm,-,N/A,,Scattered Clouds,0,2012-10-07 06:56:00
11:16 PM,41.0,37.4,87,30.29,10.0,Calm,Calm,-,N/A,,Overcast,0,2012-10-07 07:16:00
11:36 PM,41.0,37.4,87,30.29,10.0,Calm,Calm,-,N/A,,Overcast,0,2012-10-07 07:36:00
11:56 PM,41.0,37.4,87,30.29,10.0,Calm,Calm,-,N/A,,Overcast,0,2012-10-07 07:56:00